Time,TemperatureF,DewpointF,PressureIn,WindDirection,WindDirectionDegrees,WindSpeedMPH,WindSpeedGustMPH,Humidity,HourlyPrecipIn,Conditions,Clouds,dailyrainin,SoftwareType,DateUTC
2013-02-04 00:01:00,34.0,33.0,-100.00,SE,142,1.0,3.0,95,-99.99,,,-99.99,,2013-02-04 08:01:00,
2013-02-04 00:11:00,34.0,33.0,-100.00,ENE,70,0.0,1.0,95,-99.99,,,-99.99,,2013-02-04 08:11:00,
2013-02-04 00:21:00,34.0,33.0,-100.00,ENE,62,2.0,4.0,96,-99.99,,,-99.99,,2013-02-04 08:21:00,
2013-02-04 00:31:00,34.0,32.0,-100.00,ENE,74,2.0,3.0,94,-99.99,,,-99.99,,2013-02-04 08:31:00,
2013-02-04 00:41:00,33.0,31.0,-100.00,SE,140,2.0,3.0,94,-99.99,,,-99.99,,2013-02-04 08:41:00,
2013-02-04 00:52:00,33.0,32.0,-100.00,ENE,69,1.0,3.0,95,-99.99,,,-99.99,,2013-02-04 08:52:00,
2013-02-04 01:01:00,33.0,32.0,-100.00,ENE,69,1.0,3.0,95,-99.99,,,-99.99,,2013-02-04 09:01:00,
2013-02-04 01:11:00,33.0,31.0,-100.00,East,85,1.0,4.0,93,-99.99,,,-99.99,,2013-02-04 09:11:00,
2013-02-04 01:21:00,33.0,31.0,-100.00,ESE,106,1.0,4.0,94,-99.99,,,-99.99,,2013-02-04 09:21:00,
2013-02-04 01:31:00,33.0,31.0,-100.00,SSE,147,2.0,4.0,93,-99.99,,,-99.99,,2013-02-04 09:31:00,
2013-02-04 01:41:00,32.0,31.0,-100.00,NE,48,2.0,4.0,95,-99.99,,,-99.99,,2013-02-04 09:41:00,
2013-02-04 01:51:00,32.0,30.0,-100.00,NNE,33,1.0,3.0,94,-99.99,,,-99.99,,2013-02-04 09:51:00,
2013-02-04 02:01:00,32.0,30.0,-100.00,NNE,33,1.0,3.0,94,-99.99,,,-99.99,,2013-02-04 10:01:00,
2013-02-04 02:11:00,33.0,32.0,-100.00,East,86,1.0,3.0,96,-99.99,,,-99.99,,2013-02-04 10:11:00,
2013-02-04 02:21:00,33.0,31.0,-100.00,SSE,148,1.0,2.0,94,-99.99,,,-99.99,,2013-02-04 10:21:00,
2013-02-04 02:32:00,34.0,32.0,-100.00,South,173,2.0,3.0,94,-99.99,,,-99.99,,2013-02-04 10:32:00,
2013-02-04 02:41:00,35.0,32.0,-100.00,SSE,168,1.0,3.0,89,-99.99,,,-99.99,,2013-02-04 10:41:00,
2013-02-04 02:51:00,35.0,32.0,-100.00,South,176,0.0,1.0,89,-99.99,,,-99.99,,2013-02-04 10:51:00,
2013-02-04 03:01:00,35.0,32.0,-100.00,NE,41,0.0,2.0,89,-99.99,,,-99.99,,2013-02-04 11:01:00,
2013-02-04 03:11:00,36.0,33.0,-100.00,ENE,63,1.0,3.0,87,-99.99,,,-99.99,,2013-02-04 11:11:00,
2013-02-04 03:22:00,36.0,32.0,-100.00,East,85,2.0,4.0,85,-99.99,,,-99.99,,2013-02-04 11:22:00,
2013-02-04 03:32:00,34.0,31.0,-100.00,ENE,72,1.0,3.0,87,-99.99,,,-99.99,,2013-02-04 11:32:00,
2013-02-04 03:42:00,34.0,31.0,-100.00,ENE,72,1.0,3.0,87,-99.99,,,-99.99,,2013-02-04 11:42:00,
2013-02-04 03:52:00,33.0,31.0,-100.00,NE,34,0.0,3.0,91,-99.99,,,-99.99,,2013-02-04 11:52:00,
2013-02-04 04:02:00,33.0,31.0,-100.00,NE,34,0.0,3.0,91,-99.99,,,-99.99,,2013-02-04 12:02:00,
2013-02-04 04:12:00,33.0,30.0,-100.00,North,3,0.0,2.0,89,-99.99,,,-99.99,,2013-02-04 12:12:00,
2013-02-04 04:21:00,33.0,30.0,-100.00,SW,225,0.0,1.0,88,-99.99,,,-99.99,,2013-02-04 12:21:00,
2013-02-04 04:32:00,34.0,30.0,-100.00,SW,220,1.0,3.0,84,-99.99,,,-99.99,,2013-02-04 12:32:00,
2013-02-04 04:42:00,36.0,29.0,-100.00,NNW,329,1.0,5.0,77,-99.99,,,-99.99,,2013-02-04 12:42:00,
2013-02-04 04:52:00,39.0,30.0,-100.00,NNW,333,1.0,4.0,69,-99.99,,,-99.99,,2013-02-04 12:52:00,
2013-02-04 05:02:00,41.0,29.0,-100.00,North,3,2.0,6.0,63,-99.99,,,-99.99,,2013-02-04 13:02:00,
2013-02-04 05:11:00,43.0,29.0,-100.00,North,5,3.0,7.0,57,-99.99,,,-99.99,,2013-02-04 13:11:00,
2013-02-04 05:21:00,44.0,28.0,-100.00,NNE,25,4.0,13.0,53,-99.99,,,-99.99,,2013-02-04 13:21:00,
2013-02-04 05:32:00,47.0,28.0,-100.00,NE,43,6.0,12.0,48,-99.99,,,-99.99,,2013-02-04 13:32:00,
2013-02-04 05:41:00,47.0,28.0,-100.00,NE,43,6.0,12.0,48,-99.99,,,-99.99,,2013-02-04 13:41:00,
2013-02-04 05:51:00,46.0,27.0,-100.00,NE,43,6.0,12.0,48,-99.99,,,-99.99,,2013-02-04 13:51:00,
2013-02-04 06:02:00,47.0,28.0,-100.00,NE,44,8.0,14.0,47,-99.99,,,-99.99,,2013-02-04 14:02:00,
2013-02-04 06:11:00,47.0,28.0,-100.00,NE,45,7.0,13.0,48,-99.99,,,-99.99,,2013-02-04 14:11:00,
2013-02-04 06:21:00,47.0,28.0,-100.00,NE,52,7.0,13.0,48,-99.99,,,-99.99,,2013-02-04 14:21:00,
2013-02-04 06:32:00,46.0,28.0,-100.00,ENE,57,6.0,10.0,50,-99.99,,,-99.99,,2013-02-04 14:32:00,
2013-02-04 06:42:00,46.0,28.0,-100.00,ENE,59,6.0,10.0,50,-99.99,,,-99.99,,2013-02-04 14:42:00,
2013-02-04 06:52:00,46.0,28.0,-100.00,NE,55,8.0,14.0,50,-99.99,,,-99.99,,2013-02-04 14:52:00,
2013-02-04 07:03:00,46.0,28.0,-100.00,NE,52,7.0,15.0,50,-99.99,,,-99.99,,2013-02-04 15:03:00,
2013-02-04 07:12:00,47.0,29.0,-100.00,NE,56,7.0,11.0,49,-99.99,,,-99.99,,2013-02-04 15:12:00,
2013-02-04 07:23:00,46.0,28.0,-100.00,NE,52,6.0,11.0,49,-99.99,,,-99.99,,2013-02-04 15:23:00,
2013-02-04 07:33:00,46.0,28.0,-100.00,NE,53,7.0,11.0,49,-99.99,,,-99.99,,2013-02-04 15:33:00,
2013-02-04 07:40:00,48.0,28.0,-100.00,NE,48,8.0,14.0,45,-99.99,,,-99.99,,2013-02-04 15:40:00,
2013-02-04 07:43:00,47.0,29.0,-100.00,NE,54,7.0,13.0,49,-99.99,,,-99.99,,2013-02-04 15:43:00,
2013-02-04 07:52:00,47.0,29.0,-100.00,NE,55,6.0,11.0,49,-99.99,,,-99.99,,2013-02-04 15:52:00,
2013-02-04 08:02:00,47.0,28.0,-100.00,NE,49,7.0,13.0,47,-99.99,,,-99.99,,2013-02-04 16:02:00,
2013-02-04 08:11:00,48.0,28.0,-100.00,NE,48,8.0,14.0,45,-99.99,,,-99.99,,2013-02-04 16:11:00,
2013-02-04 08:22:00,48.0,28.0,-100.00,NE,48,8.0,14.0,45,-99.99,,,-99.99,,2013-02-04 16:22:00,
2013-02-04 08:32:00,48.0,28.0,-100.00,NE,48,8.0,14.0,45,-99.99,,,-99.99,,2013-02-04 16:32:00,
2013-02-04 09:42:00,52.0,27.0,-100.00,NE,50,10.0,16.0,38,-99.99,,,-99.99,,2013-02-04 17:42:00,
2013-02-04 09:52:00,52.0,27.0,-100.00,NE,50,10.0,16.0,38,-99.99,,,-99.99,,2013-02-04 17:52:00,
2013-02-04 10:03:00,53.0,28.0,-100.00,NNE,27,9.0,19.0,38,-99.99,,,-99.99,,2013-02-04 18:03:00,
2013-02-04 10:11:00,53.0,27.0,-100.00,NE,53,9.0,15.0,37,-99.99,,,-99.99,,2013-02-04 18:11:00,
2013-02-04 10:22:00,53.0,27.0,-100.00,NE,53,11.0,17.0,36,-99.99,,,-99.99,,2013-02-04 18:22:00,
2013-02-04 10:31:00,53.0,26.0,-100.00,NE,49,9.0,16.0,35,-99.99,,,-99.99,,2013-02-04 18:31:00,
2013-02-04 10:41:00,54.0,27.0,-100.00,NE,36,8.0,14.0,35,-99.99,,,-99.99,,2013-02-04 18:41:00,
2013-02-04 10:52:00,53.0,25.0,-100.00,NNE,22,11.0,19.0,33,-99.99,,,-99.99,,2013-02-04 18:52:00,
2013-02-04 11:01:00,54.0,26.0,-100.00,NE,44,9.0,15.0,33,-99.99,,,-99.99,,2013-02-04 19:01:00,
2013-02-04 11:11:00,54.0,26.0,-100.00,NE,37,9.0,15.0,34,-99.99,,,-99.99,,2013-02-04 19:11:00,
2013-02-04 11:22:00,54.0,26.0,-100.00,NNE,21,10.0,17.0,34,-99.99,,,-99.99,,2013-02-04 19:22:00,
2013-02-04 11:31:00,54.0,26.0,-100.00,NNE,31,8.0,15.0,33,-99.99,,,-99.99,,2013-02-04 19:31:00,
2013-02-04 11:41:00,54.0,26.0,-100.00,NNE,12,8.0,16.0,33,-99.99,,,-99.99,,2013-02-04 19:41:00,
2013-02-04 11:51:00,54.0,26.0,-100.00,NNE,17,9.0,18.0,33,-99.99,,,-99.99,,2013-02-04 19:51:00,
2013-02-04 12:01:00,55.0,26.0,-100.00,NE,52,6.0,13.0,32,-99.99,,,-99.99,,2013-02-04 20:01:00,
2013-02-04 12:11:00,55.0,26.0,-100.00,NE,48,6.0,18.0,32,-99.99,,,-99.99,,2013-02-04 20:11:00,
2013-02-04 12:21:00,55.0,25.0,-100.00,NE,47,5.0,11.0,31,-99.99,,,-99.99,,2013-02-04 20:21:00,
2013-02-04 12:31:00,55.0,26.0,-100.00,NE,40,7.0,13.0,32,-99.99,,,-99.99,,2013-02-04 20:31:00,
2013-02-04 12:42:00,55.0,26.0,-100.00,NE,40,7.0,13.0,32,-99.99,,,-99.99,,2013-02-04 20:42:00,
2013-02-04 12:52:00,55.0,26.0,-100.00,North,358,8.0,17.0,33,-99.99,,,-99.99,,2013-02-04 20:52:00,
2013-02-04 13:01:00,56.0,27.0,-100.00,NE,43,5.0,13.0,32,-99.99,,,-99.99,,2013-02-04 21:01:00,
2013-02-04 13:11:00,56.0,27.0,-100.00,North,354,8.0,15.0,32,-99.99,,,-99.99,,2013-02-04 21:11:00,
2013-02-04 13:22:00,55.0,26.0,-100.00,North,356,7.0,14.0,33,-99.99,,,-99.99,,2013-02-04 21:22:00,
2013-02-04 13:31:00,55.0,26.0,-100.00,North,10,8.0,15.0,32,-99.99,,,-99.99,,2013-02-04 21:31:00,
2013-02-04 13:42:00,55.0,26.0,-100.00,NNE,15,8.0,13.0,32,-99.99,,,-99.99,,2013-02-04 21:42:00,
2013-02-04 13:51:00,56.0,26.0,-100.00,NNE,15,6.0,12.0,31,-99.99,,,-99.99,,2013-02-04 21:51:00,
2013-02-04 14:02:00,56.0,25.0,-100.00,NE,34,8.0,15.0,30,-99.99,,,-99.99,,2013-02-04 22:02:00,
2013-02-04 14:11:00,56.0,24.0,-100.00,NNE,30,8.0,14.0,29,-99.99,,,-99.99,,2013-02-04 22:11:00,
2013-02-04 14:21:00,55.0,23.0,-100.00,NNW,338,8.0,17.0,28,-99.99,,,-99.99,,2013-02-04 22:21:00,
2013-02-04 14:32:00,56.0,24.0,-100.00,NE,47,7.0,21.0,29,-99.99,,,-99.99,,2013-02-04 22:32:00,
2013-02-04 14:41:00,56.0,24.0,-100.00,NNW,347,5.0,11.0,29,-99.99,,,-99.99,,2013-02-04 22:41:00,
2013-02-04 14:51:00,56.0,25.0,-100.00,NNE,12,7.0,14.0,30,-99.99,,,-99.99,,2013-02-04 22:51:00,
2013-02-04 15:01:00,56.0,25.0,-100.00,North,359,5.0,13.0,30,-99.99,,,-99.99,,2013-02-04 23:01:00,
2013-02-04 15:11:00,56.0,25.0,-100.00,North,1,7.0,11.0,30,-99.99,,,-99.99,,2013-02-04 23:11:00,
2013-02-04 15:21:00,56.0,25.0,-100.00,NNW,345,7.0,14.0,30,-99.99,,,-99.99,,2013-02-04 23:21:00,
2013-02-04 15:32:00,56.0,26.0,-100.00,NNW,340,8.0,14.0,31,-99.99,,,-99.99,,2013-02-04 23:32:00,
2013-02-04 15:41:00,56.0,26.0,-100.00,NNW,338,8.0,14.0,31,-99.99,,,-99.99,,2013-02-04 23:41:00,
2013-02-04 15:52:00,55.0,26.0,-100.00,NNW,342,8.0,12.0,32,-99.99,,,-99.99,,2013-02-04 23:52:00,
2013-02-04 16:01:00,55.0,26.0,-100.00,NNW,335,8.0,14.0,32,-99.99,,,-99.99,,2013-02-05 00:01:00,
2013-02-04 16:11:00,55.0,26.0,-100.00,NNW,339,8.0,14.0,32,-99.99,,,-99.99,,2013-02-05 00:11:00,
2013-02-04 16:21:00,55.0,26.0,-100.00,NNW,348,7.0,11.0,32,-99.99,,,-99.99,,2013-02-05 00:21:00,
2013-02-04 16:31:00,56.0,26.0,-100.00,NNE,24,6.0,11.0,31,-99.99,,,-99.99,,2013-02-05 00:31:00,
2013-02-04 16:41:00,55.0,25.0,-100.00,North,356,5.0,8.0,31,-99.99,,,-99.99,,2013-02-05 00:41:00,
2013-02-04 16:51:00,55.0,25.0,-100.00,North,4,6.0,10.0,31,-99.99,,,-99.99,,2013-02-05 00:51:00,
2013-02-04 17:01:00,55.0,26.0,-100.00,North,357,5.0,10.0,32,-99.99,,,-99.99,,2013-02-05 01:01:00,
2013-02-04 17:11:00,55.0,26.0,-100.00,North,1,4.0,6.0,32,-99.99,,,-99.99,,2013-02-05 01:11:00,
2013-02-04 17:21:00,55.0,26.0,-100.00,NE,45,4.0,7.0,32,-99.99,,,-99.99,,2013-02-05 01:21:00,
2013-02-04 17:32:00,54.0,25.0,-100.00,NNE,33,3.0,7.0,32,-99.99,,,-99.99,,2013-02-05 01:32:00,
2013-02-04 17:42:00,53.0,26.0,-100.00,North,2,2.0,4.0,35,-99.99,,,-99.99,,2013-02-05 01:42:00,
2013-02-04 17:51:00,50.0,36.0,-100.00,SW,231,2.0,4.0,58,-99.99,,,-99.99,,2013-02-05 01:51:00,
2013-02-04 18:01:00,50.0,36.0,-100.00,SW,231,2.0,4.0,58,-99.99,,,-99.99,,2013-02-05 02:01:00,
2013-02-04 18:11:00,46.0,34.0,-100.00,SE,138,1.0,3.0,63,-99.99,,,-99.99,,2013-02-05 02:11:00,
2013-02-04 18:21:00,43.0,32.0,-100.00,NNE,14,0.0,2.0,65,-99.99,,,-99.99,,2013-02-05 02:21:00,
2013-02-04 18:31:00,42.0,32.0,-100.00,SW,224,0.0,3.0,67,-99.99,,,-99.99,,2013-02-05 02:31:00,
2013-02-04 18:41:00,40.0,31.0,-100.00,SE,138,0.0,2.0,70,-99.99,,,-99.99,,2013-02-05 02:41:00,
2013-02-04 18:52:00,40.0,30.0,-100.00,SE,138,1.0,3.0,68,-99.99,,,-99.99,,2013-02-05 02:52:00,
2013-02-04 19:01:00,39.0,31.0,-100.00,NE,50,1.0,2.0,73,-99.99,,,-99.99,,2013-02-05 03:01:00,
2013-02-04 19:11:00,39.0,31.0,-100.00,East,90,2.0,4.0,74,-99.99,,,-99.99,,2013-02-05 03:11:00,
2013-02-04 19:21:00,38.0,32.0,-100.00,SE,137,1.0,2.0,79,-99.99,,,-99.99,,2013-02-05 03:21:00,
2013-02-04 19:31:00,37.0,31.0,-100.00,SE,128,0.0,2.0,80,-99.99,,,-99.99,,2013-02-05 03:31:00,
2013-02-04 19:41:00,36.0,31.0,-100.00,NNE,31,0.0,3.0,81,-99.99,,,-99.99,,2013-02-05 03:41:00,
2013-02-04 19:51:00,36.0,31.0,-100.00,ENE,60,1.0,2.0,82,-99.99,,,-99.99,,2013-02-05 03:51:00,
2013-02-04 20:01:00,36.0,30.0,-100.00,ENE,69,1.0,2.0,78,-99.99,,,-99.99,,2013-02-05 04:01:00,
2013-02-04 20:11:00,35.0,30.0,-100.00,NNE,26,0.0,1.0,81,-99.99,,,-99.99,,2013-02-05 04:11:00,
2013-02-04 20:21:00,35.0,29.0,-100.00,East,100,1.0,3.0,79,-99.99,,,-99.99,,2013-02-05 04:21:00,
2013-02-04 20:31:00,35.0,29.0,-100.00,East,84,1.0,2.0,79,-99.99,,,-99.99,,2013-02-05 04:31:00,
2013-02-04 20:41:00,35.0,29.0,-100.00,East,80,1.0,3.0,78,-99.99,,,-99.99,,2013-02-05 04:41:00,
2013-02-04 20:52:00,34.0,28.0,-100.00,ESE,110,1.0,2.0,79,-99.99,,,-99.99,,2013-02-05 04:52:00,
2013-02-04 21:01:00,34.0,28.0,-100.00,ESE,117,1.0,2.0,80,-99.99,,,-99.99,,2013-02-05 05:01:00,
2013-02-04 21:11:00,33.0,28.0,-100.00,ENE,69,1.0,2.0,81,-99.99,,,-99.99,,2013-02-05 05:11:00,
2013-02-04 21:21:00,33.0,28.0,-100.00,East,91,0.0,1.0,81,-99.99,,,-99.99,,2013-02-05 05:21:00,
2013-02-04 21:31:00,34.0,28.0,-100.00,ENE,76,1.0,2.0,79,-99.99,,,-99.99,,2013-02-05 05:31:00,
2013-02-04 21:42:00,34.0,28.0,-100.00,ESE,105,1.0,2.0,80,-99.99,,,-99.99,,2013-02-05 05:42:00,
2013-02-04 21:52:00,33.0,28.0,-100.00,East,80,1.0,3.0,80,-99.99,,,-99.99,,2013-02-05 05:52:00,
2013-02-04 22:01:00,33.0,28.0,-100.00,East,80,1.0,3.0,80,-99.99,,,-99.99,,2013-02-05 06:01:00,
2013-02-04 22:11:00,33.0,28.0,-100.00,SSE,155,1.0,2.0,81,-99.99,,,-99.99,,2013-02-05 06:11:00,
2013-02-04 22:21:00,33.0,28.0,-100.00,NE,47,2.0,2.0,83,-99.99,,,-99.99,,2013-02-05 06:21:00,
2013-02-04 22:31:00,33.0,28.0,-100.00,ENE,74,1.0,2.0,83,-99.99,,,-99.99,,2013-02-05 06:31:00,
2013-02-04 22:41:00,32.0,28.0,-100.00,ENE,75,1.0,4.0,84,-99.99,,,-99.99,,2013-02-05 06:41:00,
2013-02-04 22:51:00,32.0,28.0,-100.00,SE,125,1.0,2.0,86,-99.99,,,-99.99,,2013-02-05 06:51:00,
2013-02-04 23:01:00,32.0,28.0,-100.00,NE,50,2.0,3.0,85,-99.99,,,-99.99,,2013-02-05 07:01:00,
2013-02-04 23:11:00,32.0,28.0,-100.00,South,175,0.0,2.0,84,-99.99,,,-99.99,,2013-02-05 07:11:00,
2013-02-04 23:22:00,31.0,27.0,-100.00,WNW,294,0.0,1.0,86,-99.99,,,-99.99,,2013-02-05 07:22:00,
2013-02-04 23:31:00,31.0,28.0,-100.00,NE,35,2.0,3.0,88,-99.99,,,-99.99,,2013-02-05 07:31:00,
2013-02-04 23:41:00,32.0,29.0,-100.00,East,80,1.0,2.0,87,-99.99,,,-99.99,,2013-02-05 07:41:00,
2013-02-04 23:51:00,32.0,29.0,-100.00,East,82,1.0,3.0,88,-99.99,,,-99.99,,2013-02-05 07:51:00,